sat.trackr.live / text

‹ back to catalog

STARLINK-37710

NORAD 69826 · 2026-154H

PAYLOAD ACTIVE UNKNOWN

§ Identity

Operator
Country
US
Launch date
2026-07-05
Launch site
AFETR
Launch vehicle
Mass (kg)
RCS (m²)

Purposes: comms

External: N2YO · Heavens-Above · Gunter

§ Orbital elements

Epoch: 2026-09-19T18:36:25.492320Z

Period
93.85 min
Inclination
53.1587°
Eccentricity
0.0001305
Mean motion
15.34384278 rev/d
Perigee alt
461.9 km
Apogee alt
463.6 km
Semi-major
6,840.9 km
B*
2.2169e-4
RAAN
335.3450°
Arg perigee
93.4392°
Mean anomaly
266.6760°
Rev number
1,312

§ Raw data

STARLINK-377101 69826U 26154H   26262.77529505  .00007117  00000+0  22169-3 0  99952 69826  53.1587 335.3450 0001305  93.4392 266.6760 15.34384278 13129

JSON: /api/v1/satellites/69826 · /tle

For live sub-satellite position, see the globe view (requires WebGL).

§ Visibility from observer

Set your observer location to see the next 7 days of passes ≥ 10°. The values pass through the URL so the page stays shareable.

No JS? Fill the form by hand. The geolocation button needs JavaScript.